{"data":{"norad_id":68530,"epoch":"2026-05-25T02:47:07.026720Z","epoch_age_seconds":58813,"freshness":"FRESH","line1":"1 68530U 26068Y   26145.11605355  .00017319  00000+0  59549-3 0  9993","line2":"2 68530  53.1585 134.4515 0001154  90.9648 269.1485 15.30200894  8646","mean_motion":15.30200894,"eccentricity":0.0001154,"inclination_deg":53.1585,"raan_deg":134.4515,"arg_perigee_deg":90.9648,"mean_anomaly_deg":269.1485,"bstar":0.00059549,"rev_number":864,"period_min":94.105290726617,"perigee_km":474.421523577,"apogee_km":476.00327661854,"semimajor_km":6853.3494000978,"source":"CELESTRAK","updated_at":"2026-05-25T13:38:21.957543Z"}}